Flag for Canada Weather past 2 weeks in Ottawa, Ontario, Canada

Now
39 °F

Partly cloudy.


Feels Like: 34 °F
Forecast: 38 / 48 °F
Wind: 7 mph from Northwest

Location: Ottawa Int'L. Ont.


UV Index: 5 (Moderate)

Visibility: 10 mi


Pressure: 30.19 "Hg

Humidity: 93%

Dew point: 37 °F

Location of OttawaLocation

Historic Weather in Ottawa

°F

Ottawa temperature yesterday

Maximum temperature yesterday: 52 °F (at 4:00 PM)
Minimum temperature yesterday: 32 °F (at 1:00 AM)
Average temperature yesterday: 41 °F

Past Weeks' High & Low Weather Summary

 TemperatureHumidityPressure
High77 °F (Apr 14, 1:00 PM)100% (Apr 4, 9:00 PM)30.74 "Hg (Apr 4, 9:00 PM)
Low16 °F (Apr 16, 4:00 AM)31% (Apr 9, 4:00 PM)29.27 "Hg (Apr 8, 12:00 PM)
Average39 °F69%29.96 "Hg
* Reported Apr 4 2:00 AM — Apr 19 2:00 AM, Ottawa, Weather by CustomWeather, © 2014

Note: Actual official high and low records may vary slightly from our data, if they occured in-between our weather recording intervals... More about our weather records

Advertising

Historic Weather Conditions — Data for Previous 24 hours

 ConditionsComfort  
Time TempWeatherWind HumidityBarometerVisibility
2:00 AM
Apr 19
37 °FMostly cloudy.7 mph93%30.18 "Hg10 mi
1:00 AM37 °FPassing clouds.7 mph100%30.17 "Hg10 mi
12:00 AM41 °FMostly cloudy.5 mph93%30.17 "Hg10 mi
11:00 PM
Apr 18
39 °FOvercast.5 mph93%30.18 "Hg10 mi
10:00 PM39 °FPassing clouds.5 mph93%30.19 "Hg10 mi
9:00 PM41 °FPartly cloudy.2 mph93%30.19 "Hg10 mi
8:00 PM43 °FMostly cloudy.7 mph87%30.19 "Hg10 mi
7:00 PM43 °FLight rain. Mostly cloudy.3 mph87%30.20 "Hg10 mi
6:00 PM43 °FLight rain. Cloudy.7 mph87%30.22 "Hg15 mi
5:00 PM50 °FLight rain. Overcast.9 mph50%30.22 "Hg15 mi
4:50 PM50 °FLight rain. Overcast.10 mph50%30.22 "Hg15 mi
4:00 PM52 °FOvercast.8 mph44%30.22 "Hg15 mi
3:00 PM50 °FMostly cloudy.7 mph47%30.24 "Hg15 mi
2:00 PM50 °FOvercast.6 mph47%30.27 "Hg15 mi
1:00 PM46 °FOvercast.10 mph50%30.30 "Hg15 mi
12:00 PM46 °FOvercast.10 mph50%30.33 "Hg15 mi
11:00 AM46 °FOvercast.10 mph46%30.36 "Hg15 mi
10:00 AM43 °FOvercast.14 mph53%30.37 "Hg15 mi
9:00 AM41 °FMostly cloudy.9 mph53%30.39 "Hg15 mi
8:00 AM37 °FMostly cloudy.5 mph60%30.40 "Hg15 mi
7:00 AM34 °FOvercast.6 mph70%30.38 "Hg15 mi
6:00 AM32 °FMostly cloudy.5 mph69%30.39 "Hg15 mi
5:00 AM32 °FPassing clouds.7 mph69%30.40 "Hg15 mi
4:00 AM32 °FPassing clouds.7 mph69%30.42 "Hg15 mi
3:00 AM34 °FPassing clouds.6 mph65%30.43 "Hg15 mi
Weather by CustomWeather, © 2014

See weather overview